Location: Unspecified
(0.0000°N, 0.0000°E)
Time: 05:33:31
(UTC+00:00)

Transit 4A - Pass Details

Date: 02 October 2020
Orbit: 862 x 982 km, 66.8° (Epoch: 28 October)

Event Time Altitude Azimuth Distance (km) Brightness Sun altitude
Rises 06:54:17 0° 356° (N) 3,649 10.9 16.2°
Reaches altitude 10° 06:57:04 10° 5° (N) 2,692 10.4 16.9°
Maximum altitude 07:02:47 37° 70° (ENE) 1,439 10.3 18.3°
Drops below altitude 10° 07:08:22 10° 136° (SE) 2,631 11.2 19.7°
Sets 07:11:02 0° 144° (SE) 3,557 11.5 20.4°
